[Iaude] MPEC F36: 2015 FV284 [a=1.78,e=0.49,i=8.8,H=20.8,PHA]

mpec at mpcdb1.cfa.harvard.edu mpec at mpcdb1.cfa.harvard.edu
Wed Mar 20 07:25:16 EDT 2019


M.P.E.C. 2019-F36                                Issued 2019 Mar. 20, 11:22 UT
 
     The Minor Planet Electronic Circulars contain information on unusual
         minor planets and routine data on comets.  They are published
    on behalf of Division F of the International Astronomical Union by the
          Minor Planet Center, Smithsonian Astrophysical Observatory,
                          Cambridge, MA 02138, U.S.A.

             Prepared using the Tamkin Foundation Computer Network

                              MPC at CFA.HARVARD.EDU
            URL https://www.minorplanetcenter.net/    ISSN 1523-6714


                                  2015 FV284
 
                          Revision to MPEC 2015-F156
 
Additional Observations:
     K15FS4V  C2014 08 28.54454623 54 14.886+09 55 45.18         21.1 GVEF036F51
     K15FS4V  C2014 08 28.55619723 54 14.096+09 55 49.49         22.5 GVEF036F51
     K15FS4V  C2014 09 28.42342823 00 50.710+11 28 29.44         21.5 GVEF036F51
     K15FS4V  C2014 09 28.44345323 00 47.961+11 28 27.64         21.3 GVEF036F51
     K15FS4V  C2014 09 28.47158023 00 44.104+11 28 25.31         22.2 GVEF036F51
     K15FS4V  C2014 10 09.40398522 37 23.942+10 59 34.05         21.2 GVEF036F51
     K15FS4V  C2015 05 17.27988711 18 01.959-13 47 43.12         22.3 GVEF036F51
     K15FS4V  C2015 05 17.29148111 18 03.192-13 47 44.20         21.6 GVEF036F51
     K15FS4V  C2015 05 17.30309711 18 04.403-13 47 44.46         22.0 GVEF036F51
     K15FS4V  C2015 05 18.29234811 19 53.095-13 49 11.99         22.5 GVEF036F51
     K15FS4V  C2015 05 18.30356611 19 54.277-13 49 13.11         22.3 GVEF036F51
     K15FS4V  C2015 05 18.31476711 19 55.475-13 49 14.19         22.5 GVEF036F51
 
Observer details:
F51 Pan-STARRS 1, Haleakala.  Observers J. Bulger, K. Chambers, T. Lowe,
    E. Magnier, A. Schultz, M. Willman.  Measurers S. Chastel, M. Huber,
    Y. Ramanjooloo, R. Wainscoat, R. Weryk.  1.8-m Ritchey-Chretien + CCD.
 
Orbital elements:
2015 FV284                                          PHA, Earth MOID = 0.0192 AU
Epoch 2019 Apr. 27.0 TT = JDT 2458600.5                 MPC
M 284.58751              (2000.0)            P               Q
n   0.41430362     Peri.  148.42260     -0.27303031     -0.95633714
a   1.7820651      Node   317.17131     +0.84758978     -0.18786967
e   0.4898259      Incl.    8.82355     +0.45502309     -0.22388448
P   2.38           H   20.8           G   0.15           U   4
Residuals in seconds of arc
140828 F51  0.3+  0.0     150328 246 (4.9-  0.9+)   150415 291  0.0   0.3-
140828 F51  0.2-  0.2-    150329 H21  0.3+  0.2+    150415 291  0.0   0.2-
140928 F51  0.1-  0.2+    150329 H21  0.3+  0.1+    150419 291  0.4+  0.5-
140928 F51  0.1-  0.1+    150329 H21  0.4+  0.2-    150419 291  0.2+  0.5-
140928 F51  0.1-  0.3+    150330 H36  0.8+  0.1+    150419 291  0.5+  0.1+
141009 F51  0.1-  0.1+    150330 H36  0.9+  1.8-    150423 291  0.9+  0.5-
150328 703  0.0   0.2-    150407 448  0.1+  0.1-    150423 291  0.6+  0.0
150328 703  0.2+  0.9-    150407 448  0.4+  0.1-    150423 291  0.2+  0.7+
150328 703  0.5+  0.3+    150407 448  1.2+  0.1-    150423 291  0.0   0.3-
150328 703  0.3+  0.6+    150407 204  0.1-  0.1-    150510 291  0.0   0.3-
150328 H01  0.4+  0.1+    150407 204  0.0   0.3-    150510 291  0.8+  0.2-
150328 H01  0.3+  0.1+    150408 926  0.3+  0.2+    150517 F51  0.2-  0.1-
150328 H01  0.4+  0.2+    150408 926  0.5+  0.3-    150517 F51  0.1-  0.2-
150328 703  0.0   1.0+    150408 926  0.0   0.1+    150517 F51  0.4-  0.5+
150328 703  0.6-  0.6+    150411 474  0.0   0.1-    150518 F51  0.2-  0.3+
150328 703  1.1+  0.2+    150411 474  0.4-  0.0     150518 F51  0.2-  0.2+
150328 H01  0.2+  0.2+    150411 474  0.6+  0.4-    150518 F51  0.0   0.1+
150328 246 (4.0-  1.3+)   150415 291  0.2+  0.1-

Ephemeris:
2015 FV284               a,e,i = 1.78, 0.49, 9                   q = 0.9092
Date    TT    R. A. (2000) Decl.     Delta      r     Elong.  Phase     V
2019 02 18    21 35 58.5 -14 07 52   3.2753  2.2980     7.1     3.0    25.5
...
2019 03 05    22 02 21.5 -11 27 53   3.1777  2.2362    15.2     6.7    25.6
...
2019 03 13    22 16 31.4 -09 56 14   3.1130  2.2010    19.5     8.6    25.6
...
2019 03 19    22 27 11.8 -08 44 41   3.0592  2.1737    22.5    10.1    25.6
2019 03 20    22 28 58.8 -08 32 32   3.0498  2.1691    23.1    10.4    25.6
2019 03 21    22 30 45.9 -08 20 18   3.0403  2.1644    23.6    10.6    25.6
...
2019 03 27    22 41 30.9 -07 05 33   2.9809  2.1360    26.6    12.1    25.5
...
2019 04 04    22 55 58.0 -05 22 09   2.8957  2.0967    30.5    14.0    25.5
...
2019 04 19    23 23 32.3 -01 56 56   2.7196  2.0189    37.6    17.7    25.4

A. U. Tomatic                (C) Copyright 2019 MPC           M.P.E.C. 2019-F36



More information about the Iaude mailing list